Temperature
17 17 17 17 17 17 18 19 20 20 20 20 20 20 19 17 17 14 12 12 12 12 12 12 12 12 12 12 12 12 12 12 12 12 12 12 12 12 12 12 12 13 13 13 13 13 14 14 14
16 16 17 17 17 17 18 19 19 19 19 19 19 19 18 16 14 13 12 12 11 12 12 12 12 12 12 12 12 12 12 12 12 12 12 12 12 12 12 12 12 12 12 13 13 13 13 13 13
16 16 17 17 17 18 18 19 19 18 18 18 18 17 16 15 13 12 12 12 11 11 12 12 12 11 12 12 11 11 11 11 11 11 12 12 12 11 12 12 12 12 12 12 13 13 13 13 13
15 16 17 17 17 18 19 19 18 18 18 18 17 16 14 13 12 12 12 11 11 11 11 12 11 11 11 11 11 11 11 11 11 11 11 11 11 11 11 11 12 12 12 12 12 13 13 13 13
15 17 16 16 17 18 18 19 19 18 18 17 17 15 13 12 12 12 11 11 11 11 11 11 11 11 11 11 11 11 11 11 11 11 11 11 11 11 11 11 11 11 11 12 12 12 12 12 12
16 17 16 16 17 18 18 19 19 18 17 17 16 15 12 11 12 11 11 10 10 11 10 11 10 10 11 10 10 10 10 10 10 10 10 10 10 11 11 11 11 11 11 11 11 12 12 12 12
16 16 16 17 17 17 18 18 18 18 17 17 16 15 12 11 11 11 10 10 10 10 10 10 10 10 10 10 10 10 10 10 10 10 10 10 10 10 10 10 11 11 11 11 11 11 11 11 11
15 16 16 17 17 17 17 18 18 17 16 16 16 14 12 11 11 10 10 10 10 10 10 10 10 10 10 10 10 10 10 9 9 9 9 10 10 10 10 10 10 10 10 11 11 11 11 11 11
15 14 15 16 17 16 17 16 16 15 15 14 14 13 12 11 10 10 9 9 9 9 9 9 9 9 9 9 9 9 9 9 9 9 9 9 9 9 9 9 10 10 10 10 10 10 10 10 10
14 13 14 16 16 16 16 16 15 14 14 13 12 11 11 11 10 9 9 9 9 9 9 9 9 9 9 9 9 9 9 9 9 9 9 9 9 9 9 9 9 9 9 9 9 10 10 10 10
14 13 14 15 15 15 15 15 14 14 13 13 12 11 10 10 9 9 9 9 9 9 9 9 9 9 9 9 9 9 8 8 8 8 8 8 8 8 8 8 8 8 8 9 9 9 9 9 9
13 13 14 14 13 14 14 14 14 13 13 13 13 12 11 10 9 9 9 8 8 9 9 9 9 8 8 8 8 8 8 8 8 8 8 8 8 8 8 8 8 8 8 8 8 8 8 8 8
13 12 13 12 12 12 13 13 13 13 12 12 12 11 10 10 9 9 8 8 8 8 8 8 8 8 8 8 8 8 8 7 7 7 7 7 7 7 7 7 7 7 7 8 8 8 8 8 8
12 12 12 12 12 12 11 11 11 11 12 11 11 10 10 9 9 8 8 8 8 8 8 8 8 8 8 8 7 7 7 7 7 7 7 7 7 7 7 7 7 7 7 7 7 7 7 7 7
12 11 11 12 12 11 11 10 10 11 11 11 10 10 9 9 8 8 8 8 8 8 8 8 8 7 7 7 7 7 7 7 7 7 7 6 6 6 6 6 6 6 7 7 7 7 7 7 7
12 11 10 11 12 11 10 10 11 11 11 10 10 10 9 9 8 8 8 8 8 7 7 7 7 7 7 7 7 7 6 6 6 6 6 6 6 6 6 6 6 6 6 6 6 6 6 6 6
11 10 11 11 12 11 10 10 11 11 11 10 10 10 9 9 8 8 7 7 7 7 7 7 7 7 7 7 6 6 6 6 6 6 6 6 6 6 5 6 5 5 5 5 5 5 5 5 5
11 11 12 11 11 11 10 10 10 10 10 10 10 10 9 9 8 8 7 7 7 7 7 7 7 7 6 6 6 6 6 6 5 5 5 5 5 5 5 5 5 5 5 5 5 5 5 5 5
11 11 11 11 11 11 10 10 10 10 9 9 9 9 9 9 8 8 7 7 6 6 6 6 6 6 6 6 6 6 5 5 5 5 5 5 5 5 5 5 4 4 4 4 4 4 4 4 4
11 10 11 11 11 10 9 9 10 10 9 9 9 9 9 8 8 7 7 6 6 6 6 6 6 6 6 6 6 5 5 5 5 5 4 4 4 4 4 4 4 4 4 4 4 3 3 3 3
10 10 9 9 10 10 9 8 9 9 10 9 9 9 8 8 8 7 6 6 6 5 6 6 6 6 6 5 5 5 5 4 4 4 4 4 4 4 4 3 3 3 3 3 3 3 3 3 2
9 9 9 9 8 8 9 7 9 9 9 8 8 8 8 8 7 7 6 6 5 5 5 5 5 5 5 5 5 5 4 4 4 4 4 3 3 3 3 3 3 2 3 2 2 2 2 2 2
8 9 9 9 8 7 8 7 8 9 8 8 7 7 7 7 7 6 6 6 5 5 5 5 5 4 4 4 4 4 4 4 3 3 3 3 3 3 2 2 2 2 2 2 2 2 1 1 1
8 8 8 8 7 7 8 7 7 8 8 8 7 7 7 6 6 6 5 5 5 5 4 4 4 4 4 4 3 3 3 3 3 3 2 2 2 2 2 2 1 1 1 1 1 1 1 1 1
7 7 7 7 7 7 8 7 7 8 7 7 6 6 6 5 5 5 5 5 4 4 4 4 3 3 3 3 3 3 3 2 2 2 2 2 2 1 1 1 1 1 1 1 1 1 0 0 0
7 7 7 7 7 8 7 7 6 7 6 6 6 6 5 4 4 4 4 4 4 4 3 3 3 3 2 2 2 2 2 2 2 2 2 2 1 1 1 1 1 0 0 0 0 0 -0 -0 -1
6 6 7 7 7 7 7 7 7 6 5 5 5 5 4 4 4 4 3 3 3 3 3 2 2 2 2 1 1 1 1 1 1 1 1 1 1 1 0 0 0 -0 -0 -0 -1 -1 -1 -1 -1
6 6 6 6 6 7 8 7 6 5 4 4 4 4 4 3 3 3 3 2 2 2 2 2 2 1 1 1 1 1 1 1 1 1 0 0 0 -0 -0 -0 -0 -1 -1 -1 -1 -1 -1 -2 -2
5 5 5 6 6 6 6 6 5 5 4 3 3 3 3 3 2 2 2 2 1 1 1 1 1 1 1 0 0 0 0 0 0 -0 -0 -0 -1 -1 -1 -1 -1 -1 -2 -2 -2 -2 -2 -2 -3
5 5 5 5 5 5 5 4 4 3 3 3 3 3 2 2 2 1 1 1 1 0 0 0 -0 -0 -0 -0 -0 -0 -0 -1 -1 -1 -1 -1 -1 -1 -1 -2 -2 -2 -2 -2 -2 -3 -3 -3 -3
Wind_Speed
10 10 6 3 3 5 7 6 4 3 1 3 5 4 4 4 4 7 5 7 10 10 11 10 11 11 12 12 12 12 13 13 13 13 14 14 15 15 15 15 15 15 16 16 17 17 16 15 15
9 7 4 3 5 7 7 7 6 3 2 4 4 4 4 5 8 8 5 7 10 11 11 11 12 12 12 12 12 12 12 12 13 13 14 14 15 15 15 15 15 16 16 17 17 17 17 15 14
9 7 4 4 5 8 5 3 4 3 4 3 4 3 3 5 7 6 7 8 10 10 11 12 12 12 12 12 12 12 12 12 13 13 14 14 14 15 15 15 15 16 16 16 16 16 16 16 14
4 4 4 5 9 8 6 2 2 5 4 3 4 5 5 6 4 7 9 9 10 10 12 12 12 12 12 12 11 12 12 12 13 13 14 14 14 14 14 15 15 15 15 16 16 16 16 16 16
4 4 6 7 11 8 4 3 3 3 5 4 4 3 6 5 9 9 8 8 9 9 11 12 12 13 12 12 12 12 12 12 13 13 14 14 14 14 15 15 15 15 15 16 16 16 16 16 15
4 4 7 10 10 8 6 4 4 3 4 5 5 4 6 6 8 7 7 8 9 9 10 11 12 13 12 12 12 12 12 12 13 13 13 13 13 14 14 15 15 15 15 15 15 15 15 15 15
5 5 9 9 8 8 7 5 6 4 5 4 3 4 7 7 7 7 7 8 9 9 9 9 10 11 12 12 12 12 12 12 13 13 13 13 13 13 14 14 14 14 14 14 14 14 14 14 14
4 4 8 9 10 7 3 3 1 2 2 2 1 3 6 9 9 8 8 7 8 8 8 8 9 10 10 11 12 12 12 12 12 12 12 13 13 13 13 13 13 14 14 13 13 13 13 13 13
4 5 9 9 7 4 3 2 1 2 3 3 3 4 7 15 11 9 7 7 7 7 7 7 7 8 9 10 11 11 11 11 11 11 10 10 11 11 12 12 12 13 13 13 12 12 12 11 11
4 7 9 7 4 2 3 3 3 3 3 3 4 7 10 12 11 10 9 9 8 7 6 6 7 7 7 8 9 8 8 9 9 9 8 8 9 9 10 11 12 12 12 12 11 11 10 9 8
5 7 6 6 4 3 3 2 3 4 5 6 7 10 11 11 11 10 9 9 8 8 7 6 6 6 6 6 6 6 7 7 8 8 8 8 8 8 8 8 9 9 10 9 9 9 9 10 10
7 7 7 5 3 3 4 3 4 6 3 1 5 11 13 12 11 11 10 9 9 8 8 6 6 6 6 6 5 6 6 6 6 6 7 7 6 6 7 7 7 8 8 8 8 8 9 10 10
9 8 6 4 3 4 5 5 5 6 4 2 5 9 12 12 11 9 9 8 8 9 8 7 6 6 6 6 5 5 5 5 6 6 7 7 6 5 5 6 7 7 7 7 7 7 8 8 8
4 6 7 5 4 4 5 6 6 7 5 6 7 9 9 10 10 9 9 9 9 9 9 8 7 6 6 5 4 5 5 6 7 7 7 7 7 6 5 5 6 6 7 7 6 6 6 6 6
5 6 7 7 7 5 4 8 10 8 6 8 8 8 9 9 10 10 10 9 9 10 10 9 8 7 7 6 5 5 6 6 6 6 7 7 7 6 6 5 5 6 6 6 6 7 6 5 5
6 6 8 7 8 6 6 11 7 8 9 10 9 9 9 9 10 9 10 9 9 10 10 9 8 8 7 6 5 5 6 6 6 7 7 7 7 7 6 5 5 6 6 6 4 4 3 4 4
7 8 8 7 8 7 9 9 5 7 9 10 9 9 9 9 9 9 9 10 10 10 10 10 9 8 7 7 6 6 6 6 6 6 7 7 7 6 6 5 5 5 5 5 4 3 3 3 3
6 8 8 7 6 8 10 9 5 6 8 8 8 8 8 8 9 9 9 9 10 10 10 10 9 9 8 7 5 5 5 5 5 5 6 6 6 6 6 5 4 5 3 3 3 3 3 2 2
7 8 9 6 4 7 10 10 7 7 8 8 7 7 8 8 8 8 9 9 10 9 10 10 10 9 8 6 5 5 4 3 3 4 6 6 6 6 5 4 4 4 3 2 3 3 3 3 3
8 9 9 5 3 5 7 9 7 7 8 7 7 7 7 7 8 9 9 9 10 10 10 10 10 9 8 6 5 4 5 4 3 4 5 6 6 5 5 4 3 3 3 3 3 3 2 2 3
8 8 7 6 5 6 5 7 5 4 5 5 6 5 6 7 8 9 10 10 9 9 10 10 9 9 8 8 6 6 4 4 3 3 3 4 6 5 5 4 4 3 3 2 2 2 2 1 2
7 4 5 5 4 4 4 5 6 5 5 5 6 5 6 6 7 8 9 10 10 9 9 9 9 8 7 8 8 8 6 5 4 4 3 4 5 5 5 5 5 4 3 2 2 3 2 2 1
3 3 5 6 5 4 5 5 5 5 5 5 5 5 5 5 6 7 8 9 9 9 9 8 9 9 8 7 7 7 6 5 4 5 5 4 4 5 5 5 4 4 3 3 3 3 2 2 1
2 4 5 4 3 5 7 6 5 3 4 3 3 3 3 4 5 5 6 8 8 8 8 8 9 8 8 7 7 7 7 7 7 6 5 4 3 3 4 5 4 4 3 3 2 3 2 2 2
2 1 2 3 4 5 5 5 4 1 3 3 3 3 4 4 4 5 7 7 8 9 9 8 9 8 8 8 7 7 7 7 7 6 5 5 3 3 3 3 3 3 3 3 3 3 2 2 1
5 4 3 3 3 2 3 5 2 3 4 4 4 4 4 3 3 4 5 6 7 8 8 8 8 8 8 7 6 6 6 5 4 5 5 5 4 3 3 3 3 3 4 3 3 2 2 2 1
3 4 3 3 3 2 3 3 1 4 4 5 4 4 4 3 3 4 4 5 6 7 7 8 8 8 7 7 6 6 5 5 5 5 4 4 4 3 4 4 3 3 3 3 3 2 1 1 1
2 2 1 2 3 3 3 3 2 1 2 3 3 3 2 3 4 4 4 5 5 5 6 7 7 7 7 6 6 5 5 5 5 5 5 4 4 4 4 4 3 3 3 3 2 2 1 1 0
3 2 3 3 3 2 2 2 2 2 2 2 2 2 2 3 3 4 4 5 5 6 6 6 6 6 6 6 5 5 4 4 5 4 4 4 4 4 4 4 4 3 3 2 2 2 1 1 0
2 2 3 2 3 3 2 2 3 4 4 3 3 2 3 3 3 4 4 5 5 5 5 5 6 6 5 6 5 5 4 4 4 4 4 4 4 4 4 3 3 3 3 2 2 2 1 1 1
Wind_Direction
288 264 248 247 237 232 235 235 238 238 293 27 30 35 42 33 44 115 141 112 108 112 115 115 109 101 96 90 84 79 76 73 69 65 63 61 59 58 58 59 59 59 59 59 59 58 59 60 59
278 258 246 235 236 232 231 215 221 228 135 91 56 42 57 73 80 105 122 107 111 110 113 115 112 105 100 94 89 83 78 74 70 67 64 63 61 59 58 59 59 60 60 60 59 58 56 59 60
267 249 242 228 234 239 230 198 152 120 112 117 105 44 36 79 100 111 117 117 109 106 111 115 113 109 103 97 92 87 81 77 72 68 66 66 63 60 58 58 60 59 61 61 60 58 56 56 57
253 224 242 240 238 240 239 205 139 127 118 115 127 113 89 50 76 106 118 119 112 105 106 115 115 110 105 99 95 91 85 79 74 71 68 67 65 62 61 58 58 59 61 61 61 60 57 55 52
235 233 226 231 239 244 243 202 213 173 154 154 151 138 107 79 86 106 120 117 114 107 105 116 117 112 106 101 95 91 88 82 77 72 69 66 65 63 61 59 58 59 60 61 60 59 56 54 51
233 236 230 228 232 233 225 213 223 200 161 155 160 156 112 118 112 116 118 110 105 106 108 117 118 112 108 103 97 91 88 84 78 73 69 66 64 62 61 60 61 60 60 59 58 57 56 52 50
242 239 243 242 238 233 219 211 215 207 188 172 166 147 127 141 125 122 111 105 101 100 104 108 112 110 108 106 99 94 88 83 79 75 71 67 64 62 60 59 59 60 60 58 56 56 55 53 51
264 268 245 241 239 243 216 225 224 229 178 109 115 155 146 150 131 122 113 110 106 103 103 103 104 103 101 102 99 94 89 84 79 75 71 66 62 59 58 57 57 58 58 56 54 54 55 52 48
265 245 240 240 239 236 193 213 63 18 86 82 51 57 105 129 133 130 123 116 116 112 104 100 99 98 99 103 101 94 88 84 79 72 67 64 59 56 54 55 57 57 56 55 53 53 52 48 43
227 233 239 261 288 270 209 194 166 171 175 160 115 95 115 137 147 152 152 148 142 133 121 105 103 100 101 104 100 95 89 84 79 72 65 60 61 61 60 59 59 55 52 50 47 47 45 40 36
220 234 246 274 305 299 262 211 195 203 219 200 176 156 152 156 161 165 163 156 151 141 129 116 109 105 102 97 99 92 89 83 77 74 68 67 67 64 60 59 55 50 46 41 35 33 34 34 34
236 249 252 264 297 294 265 243 229 230 241 139 157 161 163 170 172 173 170 162 153 148 140 130 120 116 107 103 98 92 84 78 75 74 70 67 57 53 52 50 46 45 41 34 31 31 34 35 35
238 248 255 253 260 277 283 255 257 244 226 165 149 157 171 178 176 171 165 162 155 152 147 142 132 128 114 104 98 95 89 84 81 77 73 70 60 53 50 52 46 43 40 35 32 33 32 33 33
242 245 245 240 241 244 246 247 245 239 207 182 179 175 180 183 173 167 167 171 166 161 154 146 142 135 119 111 100 97 99 95 88 79 75 73 69 61 53 49 46 44 38 34 37 39 34 32 36
247 251 247 228 226 228 238 251 232 221 204 196 195 190 185 185 178 177 177 174 169 164 156 152 151 136 127 120 109 103 99 97 88 83 80 74 72 64 57 51 43 43 41 38 44 43 41 36 36
235 238 239 222 211 203 216 251 221 196 201 206 202 197 187 186 184 180 176 170 167 161 157 157 155 143 136 126 113 109 106 98 92 92 87 80 76 72 62 53 46 43 42 39 39 44 39 27 20
223 235 236 229 211 200 215 247 209 194 205 209 203 196 186 184 182 179 174 170 166 162 159 157 152 147 139 127 114 107 102 93 94 97 93 87 84 80 69 58 56 49 45 37 33 40 38 34 22
238 244 246 234 210 215 227 243 226 212 216 214 202 194 189 189 185 175 170 165 160 158 157 156 152 146 139 129 118 106 95 86 90 93 94 93 88 85 77 69 62 55 50 44 41 38 35 35 21
275 272 264 260 231 234 237 248 243 213 218 215 203 199 196 198 178 165 162 157 156 157 159 160 159 153 146 145 144 138 134 122 99 93 98 97 93 89 85 73 64 55 54 60 56 51 43 33 26
265 273 275 269 233 240 252 257 252 224 220 209 202 204 195 190 172 163 160 161 165 164 164 163 162 158 155 152 146 138 132 121 111 98 99 102 96 91 95 80 67 64 67 66 60 59 44 31 22
256 261 275 278 279 252 268 274 239 233 224 210 205 199 192 191 179 169 167 167 163 164 166 166 161 159 154 143 133 131 119 117 115 120 111 100 103 96 93 90 78 67 67 84 63 55 62 42 8
254 267 277 271 263 260 212 268 243 221 222 219 212 196 192 187 176 167 167 168 168 165 156 154 154 153 149 146 150 153 156 157 152 143 130 111 111 102 95 91 87 76 66 77 62 43 40 53 13
253 294 274 258 243 271 233 243 260 195 224 225 206 194 188 178 173 170 168 167 161 155 152 153 152 151 149 149 154 154 149 142 135 135 133 123 104 104 103 100 91 79 72 67 57 50 42 43 37
268 278 260 250 230 250 219 211 265 203 212 190 172 160 162 152 149 149 151 146 145 144 146 151 153 153 153 153 154 154 152 146 145 145 143 136 124 104 101 103 96 89 82 78 72 65 55 39 35
225 239 249 230 217 235 193 197 242 130 90 104 122 123 118 121 136 140 144 148 147 148 150 153 154 154 154 154 155 153 152 153 156 154 150 144 138 132 124 106 101 97 94 93 86 75 76 59 50
221 220 224 243 241 253 186 209 217 108 88 73 79 103 100 95 118 132 144 148 149 150 150 153 154 153 152 152 150 147 148 153 153 150 150 149 151 147 132 121 115 108 106 102 90 73 81 66 61
225 232 263 285 276 263 225 195 179 93 78 77 76 88 100 104 118 128 132 135 139 146 152 154 151 149 149 147 143 144 146 144 146 142 139 138 137 139 133 127 120 114 109 105 100 94 92 82 74
248 258 236 237 250 254 238 209 213 127 92 86 90 81 80 97 106 116 120 121 126 133 137 139 144 146 142 141 144 142 140 144 140 137 139 139 135 133 135 133 128 120 115 113 102 97 87 99 88
175 204 239 250 261 245 260 273 12 83 93 103 100 100 96 100 103 105 109 111 114 115 123 131 134 135 137 140 138 134 135 133 132 137 139 139 133 131 139 141 137 135 133 122 119 127 124 124 112
210 208 195 212 260 244 254 260 29 61 72 87 94 79 82 92 93 92 100 106 110 116 124 131 133 136 137 136 135 134 132 128 128 132 133 133 137 134 136 138 141 147 144 134 142 151 145 157 205
Height
1490 1492 1494 1496 1498 1498 1495 1489 1484 1485 1486 1489 1490 1491 1494 1499 1503 1514 1514 1513 1514 1515 1516 1518 1520 1521 1522 1523 1524 1525 1525 1526 1526 1527 1527 1527 1527 1528 1528 1528 1529 1529 1530 1530 1531 1531 1532 1532 1533
1490 1492 1495 1495 1496 1498 1492 1485 1485 1485 1487 1489 1492 1493 1496 1502 1505 1508 1511 1512 1513 1514 1516 1518 1520 1521 1522 1523 1524 1525 1526 1526 1526 1527 1527 1528 1528 1528 1529 1529 1530 1530 1531 1531 1532 1532 1533 1533 1534
1489 1492 1494 1491 1491 1491 1488 1481 1483 1485 1487 1490 1493 1496 1499 1504 1506 1508 1510 1511 1513 1514 1516 1518 1519 1521 1522 1523 1524 1525 1526 1526 1527 1527 1527 1528 1528 1529 1529 1530 1531 1531 1531 1532 1532 1533 1533 1534 1535
1490 1492 1491 1490 1489 1483 1482 1482 1482 1485 1488 1491 1493 1498 1501 1505 1506 1507 1509 1511 1512 1514 1515 1517 1519 1521 1522 1523 1524 1525 1526 1526 1527 1527 1528 1528 1529 1530 1530 1530 1531 1531 1532 1532 1533 1533 1534 1535 1536
1489 1489 1489 1489 1485 1482 1481 1482 1483 1485 1488 1491 1493 1497 1502 1505 1505 1507 1509 1510 1512 1513 1515 1517 1519 1520 1522 1523 1524 1525 1526 1526 1527 1527 1528 1528 1529 1530 1530 1531 1531 1532 1532 1533 1533 1534 1534 1535 1536
1488 1485 1487 1486 1482 1480 1480 1481 1483 1484 1487 1490 1493 1497 1501 1504 1505 1506 1509 1510 1512 1513 1515 1517 1519 1520 1521 1523 1524 1525 1526 1526 1527 1528 1528 1529 1529 1530 1530 1531 1532 1532 1533 1533 1534 1534 1535 1536 1537
1486 1483 1482 1479 1480 1479 1479 1480 1482 1483 1486 1489 1492 1496 1499 1502 1503 1505 1508 1510 1511 1513 1514 1516 1518 1520 1521 1523 1524 1525 1526 1526 1527 1528 1529 1529 1530 1530 1531 1531 1532 1532 1533 1534 1534 1534 1535 1536 1537
1482 1481 1478 1477 1477 1477 1478 1479 1480 1483 1485 1488 1491 1494 1497 1499 1501 1504 1506 1509 1511 1512 1514 1516 1517 1519 1521 1522 1524 1525 1526 1527 1527 1528 1529 1529 1530 1530 1531 1531 1532 1532 1533 1534 1534 1535 1535 1536 1537
1481 1483 1479 1474 1474 1476 1477 1479 1481 1483 1485 1487 1490 1492 1494 1496 1499 1502 1505 1508 1510 1512 1513 1515 1516 1518 1520 1521 1523 1524 1525 1526 1527 1528 1529 1529 1530 1530 1531 1531 1532 1533 1533 1533 1534 1535 1535 1536 1537
1479 1479 1475 1472 1472 1474 1476 1478 1481 1483 1485 1487 1490 1491 1493 1495 1497 1500 1503 1505 1507 1510 1512 1513 1515 1517 1519 1520 1522 1523 1525 1526 1527 1528 1528 1529 1530 1530 1531 1531 1532 1532 1533 1533 1534 1534 1535 1536 1537
1475 1475 1473 1474 1474 1475 1476 1478 1480 1481 1483 1484 1487 1489 1491 1494 1496 1498 1501 1503 1505 1508 1510 1512 1514 1516 1518 1519 1521 1523 1524 1525 1526 1527 1528 1529 1529 1530 1530 1531 1531 1531 1532 1532 1533 1534 1534 1535 1536
1474 1473 1473 1474 1475 1476 1476 1477 1479 1480 1481 1482 1484 1486 1488 1491 1493 1495 1498 1501 1503 1506 1508 1510 1512 1515 1516 1518 1520 1521 1523 1524 1525 1526 1527 1528 1528 1529 1530 1530 1530 1531 1531 1532 1532 1533 1533 1534 1535
1472 1473 1473 1474 1475 1476 1477 1477 1478 1478 1479 1481 1483 1484 1486 1488 1491 1493 1496 1499 1501 1503 1506 1508 1511 1513 1515 1517 1518 1520 1522 1523 1524 1525 1526 1527 1527 1528 1528 1529 1530 1530 1530 1531 1531 1532 1532 1533 1534
1471 1472 1473 1474 1475 1476 1477 1476 1477 1475 1477 1479 1481 1482 1484 1486 1487 1490 1493 1496 1498 1501 1503 1506 1509 1511 1513 1515 1517 1519 1520 1522 1523 1524 1525 1526 1526 1527 1527 1528 1528 1529 1529 1530 1530 1531 1531 1532 1532
1471 1472 1471 1471 1473 1474 1476 1475 1472 1472 1475 1476 1478 1480 1481 1483 1485 1487 1489 1492 1495 1498 1501 1503 1506 1509 1511 1513 1515 1517 1518 1520 1521 1522 1524 1524 1525 1525 1526 1527 1527 1528 1528 1529 1529 1529 1530 1530 1531
1470 1470 1471 1468 1469 1471 1477 1472 1467 1469 1471 1473 1475 1477 1479 1481 1482 1484 1487 1489 1492 1495 1498 1500 1503 1506 1508 1511 1513 1515 1517 1518 1519 1521 1522 1523 1524 1524 1525 1526 1526 1527 1527 1528 1528 1528 1528 1529 1529
1469 1468 1466 1466 1465 1467 1470 1467 1465 1466 1468 1469 1471 1473 1476 1478 1480 1481 1484 1486 1489 1492 1494 1497 1500 1503 1506 1508 1511 1513 1515 1516 1518 1519 1520 1521 1522 1523 1524 1524 1525 1526 1526 1527 1527 1527 1527 1527 1527
1466 1463 1460 1462 1462 1463 1465 1463 1464 1464 1465 1465 1467 1470 1472 1474 1476 1478 1481 1483 1486 1489 1491 1494 1497 1500 1503 1506 1508 1510 1512 1514 1515 1517 1518 1520 1521 1521 1522 1523 1524 1524 1525 1525 1525 1525 1526 1526 1526
1461 1460 1459 1458 1459 1461 1461 1460 1460 1461 1462 1462 1464 1466 1468 1471 1473 1476 1478 1480 1483 1486 1488 1490 1493 1496 1499 1502 1504 1507 1509 1511 1513 1515 1516 1518 1519 1520 1520 1521 1522 1523 1523 1524 1524 1524 1524 1524 1525
1461 1461 1459 1458 1458 1459 1460 1458 1456 1456 1457 1458 1460 1462 1465 1468 1470 1472 1474 1476 1479 1481 1484 1487 1490 1492 1496 1499 1502 1504 1507 1509 1511 1513 1514 1516 1517 1518 1519 1520 1520 1521 1522 1522 1523 1523 1523 1523 1524
1460 1462 1461 1462 1459 1458 1460 1459 1454 1453 1454 1456 1457 1459 1462 1464 1466 1469 1471 1473 1475 1478 1481 1483 1486 1489 1492 1496 1499 1502 1504 1506 1508 1510 1512 1513 1515 1516 1517 1518 1519 1519 1520 1520 1520 1521 1521 1521 1522
1460 1460 1460 1461 1464 1463 1461 1465 1453 1451 1453 1454 1455 1456 1459 1461 1464 1466 1467 1470 1472 1475 1478 1481 1484 1486 1489 1492 1495 1497 1499 1502 1504 1507 1509 1511 1512 1514 1515 1516 1517 1518 1518 1519 1519 1519 1520 1520 1520
1460 1459 1460 1459 1462 1464 1461 1465 1455 1449 1451 1451 1452 1454 1456 1458 1460 1462 1465 1467 1470 1472 1475 1478 1481 1484 1487 1489 1492 1494 1497 1499 1502 1504 1506 1508 1510 1511 1513 1514 1515 1516 1516 1517 1517 1518 1518 1519 1519
1459 1460 1459 1459 1462 1467 1457 1462 1456 1450 1448 1449 1451 1452 1454 1456 1458 1460 1463 1465 1467 1470 1473 1476 1478 1481 1484 1487 1489 1492 1494 1496 1498 1500 1503 1505 1506 1508 1510 1512 1513 1514 1514 1515 1515 1516 1516 1517 1517
1460 1464 1465 1464 1464 1458 1451 1457 1456 1448 1448 1448 1450 1452 1453 1455 1457 1458 1460 1462 1464 1467 1470 1473 1476 1478 1481 1484 1486 1489 1492 1494 1496 1498 1500 1502 1503 1505 1507 1509 1510 1511 1512 1512 1513 1513 1514 1514 1515
1460 1461 1465 1463 1458 1452 1452 1455 1453 1448 1448 1449 1450 1452 1453 1455 1456 1457 1459 1461 1463 1465 1468 1470 1473 1476 1479 1481 1484 1486 1489 1491 1494 1496 1498 1499 1501 1503 1505 1506 1507 1508 1509 1509 1510 1511 1511 1512 1512
1459 1460 1459 1460 1456 1458 1452 1449 1449 1448 1449 1450 1451 1452 1454 1455 1456 1457 1459 1460 1462 1464 1466 1469 1471 1474 1476 1479 1481 1484 1487 1489 1491 1493 1495 1497 1499 1501 1502 1503 1504 1506 1506 1507 1507 1508 1509 1509 1510
1460 1460 1463 1463 1459 1456 1448 1447 1453 1452 1452 1453 1453 1454 1455 1456 1457 1457 1458 1460 1461 1463 1465 1467 1470 1472 1474 1477 1479 1482 1484 1487 1489 1491 1492 1494 1496 1498 1499 1501 1502 1503 1504 1504 1505 1505 1506 1507 1507
1462 1462 1461 1459 1456 1458 1456 1459 1453 1452 1453 1454 1454 1455 1455 1456 1457 1457 1458 1459 1461 1462 1464 1466 1468 1470 1472 1475 1477 1480 1482 1484 1486 1488 1490 1491 1493 1495 1497 1498 1499 1500 1501 1502 1502 1503 1504 1504 1504
1458 1458 1461 1465 1460 1457 1461 1465 1455 1454 1453 1454 1455 1455 1456 1456 1456 1457 1458 1459 1460 1461 1463 1465 1467 1469 1471 1473 1475 1478 1480 1482 1483 1485 1487 1489 1491 1492 1494 1495 1496 1497 1498 1499 1499 1500 1501 1501 1501